Theta_e
314 315 314 312 310 308 314 318 315 327 328 313 313 310 313 311 316 319 316 312 312 311 313 308 310 306 309 314 310 305 309 300 298 305 312 315 307 302 300 295 295 299 303 302
315 314 313 312 310 309 306 313 319 328 326 310 311 312 313 315 315 315 315 312 313 312 311 308 312 312 316 316 313 306 308 303 297 302 307 309 306 308 307 300 302 299 298 302
314 314 313 311 310 309 308 317 317 320 324 321 314 310 311 311 317 318 317 314 315 312 310 311 310 312 316 318 314 328 314 302 299 295 301 306 307 307 305 301 296 303 303 305
314 314 313 312 310 309 313 323 319 319 314 315 316 315 313 313 313 318 319 315 314 311 306 309 310 314 315 316 321 312 307 299 305 304 310 311 307 306 306 300 300 297 308 307
314 314 313 312 310 309 318 308 310 314 313 317 314 311 311 312 313 316 314 314 317 315 312 313 311 313 311 311 311 307 308 301 309 302 308 307 304 306 305 305 304 301 305 308
314 314 314 313 311 310 313 311 311 312 312 315 313 314 316 316 317 318 318 316 317 316 315 317 316 317 317 314 311 308 306 302 299 297 306 307 300 305 306 306 307 305 299 310
314 314 314 313 312 310 309 313 309 310 309 312 310 311 313 316 318 316 318 318 314 318 321 318 316 315 316 315 315 311 305 304 304 299 302 294 306 310 311 308 309 308 304 316
314 314 314 314 313 311 308 316 308 305 301 305 307 308 311 313 317 316 317 319 320 323 315 308 307 307 307 312 313 311 308 304 300 299 300 302 307 309 308 305 306 311 308 311
313 313 314 314 313 311 309 314 313 307 302 302 304 303 305 302 303 311 316 321 319 321 313 307 300 300 305 305 308 312 310 307 302 300 297 296 306 312 316 311 301 315 315 311
312 312 312 313 313 312 308 311 313 308 301 305 303 301 302 306 304 302 306 307 311 318 312 305 303 302 308 302 302 303 305 307 302 302 299 303 312 314 314 300 305 315 317 318
311 312 312 312 312 313 309 307 312 308 303 303 306 306 302 303 302 299 302 305 304 311 309 309 308 306 308 305 306 304 304 303 303 306 301 299 316 314 306 310 314 318 317 322
311 311 312 312 312 312 311 302 309 312 306 304 308 308 310 308 307 303 300 299 300 305 299 302 305 304 309 308 303 312 302 305 304 309 309 316 316 314 317 316 316 318 318 332
311 311 311 311 312 311 309 304 306 309 305 303 306 304 307 313 312 311 302 304 304 303 305 302 303 305 312 306 308 311 313 317 310 312 314 315 318 321 322 318 318 321 321 334
311 311 311 311 312 311 310 304 307 308 305 298 302 307 303 309 309 309 308 305 304 303 303 301 300 299 310 308 309 308 312 314 314 312 316 319 321 320 322 320 319 319 322 329
310 310 310 310 311 311 309 308 311 311 303 295 295 301 306 307 309 308 307 305 304 304 301 299 298 302 301 303 305 304 313 309 308 308 315 315 318 321 325 321 320 319 318 319
311 311 311 311 311 310 306 306 311 309 307 297 292 303 304 307 308 307 306 305 304 304 302 301 302 303 300 297 297 305 309 311 316 309 314 318 321 323 322 325 324 321 319 320
311 311 311 311 310 307 302 302 305 307 309 301 295 296 304 306 305 305 306 307 305 305 303 302 303 303 303 298 295 302 307 309 313 315 314 313 316 316 322 326 326 323 321 321
311 310 310 310 309 308 305 310 308 307 304 303 295 296 299 304 299 298 304 301 302 301 300 301 299 301 302 298 302 305 306 307 308 316 318 316 317 318 319 323 324 322 321 322
310 310 310 310 307 307 307 312 312 311 305 297 297 293 291 303 301 301 300 301 295 301 296 298 299 296 293 299 303 306 306 305 307 310 313 319 317 318 318 319 321 322 324 328
310 310 308 304 306 313 312 306 302 302 303 302 295 300 295 300 299 297 297 299 294 292 295 299 295 294 300 306 310 311 313 313 312 306 306 309 315 315 318 317 319 322 321 327
304 300 301 305 313 307 304 300 298 300 297 300 300 301 295 303 295 294 298 293 294 288 292 292 291 291 303 306 306 309 311 313 313 314 315 314 311 315 316 316 318 318 322 326
303 301 305 307 303 301 296 295 299 297 295 301 300 299 301 301 303 297 298 293 295 288 296 292 289 298 303 305 306 306 307 309 311 313 313 315 316 316 315 315 315 317 325 327
308 303 299 298 298 290 290 289 293 296 301 302 301 297 299 301 301 297 296 291 289 296 291 289 292 302 304 305 306 305 307 307 308 310 311 313 314 317 318 314 314 316 322 323
300 297 287 291 292 293 296 296 297 303 302 300 299 297 297 298 294 295 291 293 295 288 286 288 298 301 303 305 306 304 304 305 304 305 307 309 311 313 317 319 323 321 318 325
296 298 287 292 297 299 300 302 301 303 303 300 298 297 297 294 294 296 293 289 286 289 290 297 300 302 303 303 306 305 305 304 303 303 304 306 308 311 313 317 320 323 323 331
298 296 293 297 296 297 298 299 300 304 302 301 299 295 293 292 294 291 289 288 287 291 297 301 303 302 302 305 306 306 307 305 304 303 304 304 306 308 312 315 317 320 323 329
296 294 299 298 298 298 299 302 302 306 300 294 295 290 290 296 288 289 293 291 293 297 299 302 305 304 305 306 306 305 305 305 303 303 303 304 306 308 312 312 315 320 323 331
Wind_Speed
29 30 31 31 31 35 9 5 4 4 8 3 4 9 10 10 22 15 19 4 8 5 8 5 19 5 5 1 6 5 3 2 4 3 5 6 5 9 3 6 10 4 7 2
29 31 32 32 29 21 7 5 5 6 9 5 6 9 17 20 17 15 17 3 5 6 7 7 17 7 9 7 7 2 5 3 5 5 9 11 5 7 4 4 6 1 7 4
29 32 34 35 35 27 4 4 5 4 3 6 9 11 12 16 15 4 15 5 7 7 8 9 4 5 3 19 5 4 5 3 4 4 7 4 9 8 8 5 6 1 4 7
30 32 34 37 41 38 3 2 4 8 5 7 14 16 9 12 9 10 22 6 5 7 7 9 9 15 16 25 8 4 4 4 2 9 11 14 6 5 8 5 5 4 9 15
29 31 33 35 41 44 3 6 6 7 8 12 14 11 9 11 12 4 7 3 17 9 8 6 9 9 6 1 3 4 3 5 2 7 10 9 5 9 3 6 4 2 7 9
28 29 31 32 34 28 6 7 6 4 7 9 10 13 16 20 16 11 15 15 7 14 12 8 8 9 12 9 4 4 4 6 2 7 9 6 3 9 3 4 6 6 6 8
26 27 29 30 30 26 4 7 4 4 6 9 12 18 18 20 16 13 14 10 6 10 13 9 8 8 10 7 17 6 6 3 1 6 4 2 9 5 4 4 1 6 3 24
25 26 27 28 29 28 5 5 6 4 6 12 13 17 15 15 12 14 14 14 16 17 8 6 8 6 5 7 8 10 5 3 2 3 2 5 7 6 8 5 6 5 5 6
24 25 26 27 28 29 8 4 5 4 4 6 13 12 13 6 13 10 11 19 17 13 4 2 2 4 5 5 7 9 9 7 5 4 3 5 8 5 6 5 4 6 6 6
24 25 25 26 26 28 10 4 13 5 4 4 9 5 7 7 8 6 9 15 10 11 4 2 4 8 7 10 9 8 7 5 5 5 5 6 5 2 6 5 8 3 6 10
23 24 24 25 25 24 13 6 11 7 4 13 7 10 10 9 4 4 11 10 8 5 6 3 4 3 7 9 10 7 6 4 5 4 5 13 2 6 2 9 4 5 6 7
22 22 23 23 22 21 18 4 9 10 5 9 18 24 22 18 15 9 3 7 5 4 5 7 6 6 5 5 5 8 5 6 6 7 7 7 2 5 9 4 5 5 10 14
21 22 22 22 20 20 15 6 8 8 4 8 3 6 21 5 6 5 2 3 3 5 7 3 4 5 4 4 4 7 12 13 5 8 11 7 9 10 24 8 6 7 9 17
21 21 22 22 20 19 17 6 8 7 4 4 7 18 12 18 14 10 6 5 6 5 2 4 4 3 5 5 6 7 4 10 9 5 17 14 13 7 8 15 6 6 6 14
22 22 21 22 21 21 13 7 5 7 4 4 9 17 11 12 8 8 8 5 6 3 4 5 7 5 5 8 9 10 3 7 6 8 9 2 11 17 3 12 8 5 4 5
22 22 21 20 19 18 6 3 4 6 4 4 6 8 8 9 6 7 7 6 6 4 6 5 4 7 8 6 6 6 10 5 5 6 12 10 11 15 19 12 3 7 5 4
22 21 19 17 15 6 3 3 4 8 4 4 5 6 5 10 13 4 4 5 3 2 4 2 6 8 8 8 12 8 12 11 8 8 10 11 11 13 18 13 16 5 4 3
25 23 19 17 16 10 5 2 6 5 4 4 4 5 6 14 7 7 7 6 7 5 5 4 5 8 6 8 9 8 11 15 11 9 3 9 10 14 18 16 15 7 2 1
29 26 21 2 3 3 3 5 3 3 3 5 4 5 6 7 8 6 8 4 8 5 8 9 8 9 8 8 11 9 10 13 10 8 8 3 8 9 12 16 15 13 17 15
30 6 4 3 3 8 5 2 3 3 2 3 4 4 7 7 6 5 6 4 5 7 8 4 6 7 9 12 11 14 10 13 10 6 8 6 3 9 7 9 9 8 9 7
6 6 4 6 13 3 4 4 5 5 4 5 2 3 4 4 6 6 3 5 5 5 5 4 9 9 3 10 10 12 15 13 11 10 14 10 6 9 6 4 8 12 8 3
7 7 8 5 4 2 4 4 4 4 1 2 4 6 6 2 3 2 4 4 4 7 5 5 8 3 8 7 9 9 12 15 15 14 14 15 18 8 7 4 8 5 4 3
4 3 4 2 3 2 5 4 0 3 3 4 4 6 3 2 3 3 4 4 5 7 5 6 6 6 6 1 2 7 8 12 12 13 13 16 18 20 15 3 2 11 1 7
3 4 5 4 5 6 4 3 4 2 2 4 5 5 3 3 4 5 5 4 4 5 7 11 2 4 5 7 4 7 9 11 12 14 15 13 14 15 15 13 7 3 7 5
4 5 4 6 8 9 9 5 5 4 6 7 7 6 3 4 4 3 3 3 6 6 3 2 3 1 3 8 3 2 2 5 7 11 12 14 11 13 14 10 10 10 14 4
4 6 6 8 9 9 8 7 4 4 4 4 3 4 4 3 3 2 7 5 7 2 2 3 5 5 6 6 3 5 6 4 3 3 11 13 14 14 15 12 9 9 12 3
5 6 9 11 9 11 9 6 4 1 2 4 2 4 6 2 4 4 4 6 6 6 5 3 3 1 1 3 6 7 7 7 6 6 10 14 13 14 12 10 11 8 11 5
Wind_Direction
351 350 349 348 348 340 357 308 273 162 153 163 203 227 246 274 288 317 287 330 323 94 218 267 305 213 87 43 121 119 186 196 296 190 85 21 300 294 300 118 297 38 117 45
352 351 349 348 351 360 313 304 271 267 175 225 252 248 257 254 237 307 276 204 261 278 197 177 262 62 35 52 53 70 343 333 3 12 7 342 306 292 8 354 79 24 108 213
354 353 351 349 346 347 196 279 300 321 213 213 254 282 283 286 283 292 283 316 346 343 337 314 229 153 23 335 111 130 74 267 202 184 205 258 291 323 354 34 83 225 162 149
356 356 355 353 348 348 223 272 343 18 344 338 319 311 287 314 336 357 328 330 277 281 313 318 5 9 126 232 171 150 151 236 299 296 179 229 238 306 322 349 323 90 171 151
358 359 359 360 356 339 84 9 351 342 289 310 320 312 317 315 314 321 284 244 335 337 63 46 343 0 352 87 265 147 210 278 306 296 291 284 255 279 237 264 269 293 163 159
360 359 1 4 8 355 0 9 321 265 290 314 318 355 345 338 15 354 9 10 0 303 21 15 329 304 290 285 308 259 178 166 199 256 266 297 23 282 2 18 44 75 52 155
359 360 1 3 7 14 282 338 300 306 310 336 349 351 349 346 346 338 342 350 3 314 337 337 339 310 314 315 302 308 324 355 189 240 329 310 249 313 10 319 22 6 29 147
359 0 1 1 2 3 323 307 11 331 308 329 342 349 344 327 334 349 333 334 347 335 305 330 350 339 329 298 274 300 293 309 303 130 256 255 303 323 50 89 344 9 46 48
359 359 0 360 360 1 339 294 13 311 310 37 3 340 2 352 349 340 335 348 342 340 310 112 186 261 313 281 309 308 307 252 161 297 212 238 246 306 120 105 336 317 341 176
358 358 359 359 359 357 347 295 346 347 302 269 356 346 344 337 341 296 314 342 328 326 326 263 210 253 279 270 268 260 280 317 235 245 236 260 192 349 342 107 217 46 36 124
353 353 354 356 358 359 355 290 349 340 302 291 259 359 323 325 349 339 337 329 13 313 348 311 290 255 261 258 259 246 232 220 230 260 286 289 310 340 88 229 172 117 115 94
348 348 350 351 352 357 353 322 322 314 264 271 300 287 270 254 264 278 298 300 328 298 16 10 339 340 318 324 289 320 273 216 218 184 217 201 343 320 272 111 161 110 113 123
343 343 343 343 343 347 356 303 302 311 302 299 281 17 352 191 269 240 260 260 278 330 332 285 284 269 327 296 295 344 340 21 342 25 351 286 193 7 334 114 88 112 118 136
336 336 336 335 334 335 342 311 294 290 297 282 294 356 330 313 299 300 296 278 268 277 299 269 251 297 291 299 313 321 316 324 324 334 12 354 79 146 208 297 116 66 79 129
329 329 330 329 329 328 317 269 287 32 18 308 295 297 279 311 314 255 262 294 290 275 281 268 268 251 264 275 288 275 312 311 334 320 353 317 301 330 242 223 133 124 111 101
322 322 321 323 325 331 299 180 75 12 349 292 307 320 285 301 306 346 296 269 263 249 262 267 263 274 277 269 271 292 300 306 8 336 338 334 330 321 350 337 162 121 188 154
316 314 313 312 312 318 295 356 326 326 291 255 289 288 305 352 339 239 281 323 292 258 269 267 270 241 251 269 269 284 295 308 287 295 340 328 343 335 339 336 339 67 79 93
312 308 305 298 299 278 268 190 223 273 265 265 273 272 306 352 353 328 355 326 322 310 295 293 280 298 290 267 262 271 280 289 306 310 229 268 320 344 340 339 352 330 205 235
310 312 303 266 204 252 39 189 217 243 284 313 312 312 321 359 348 337 330 320 304 275 274 265 253 257 252 270 295 286 265 265 270 291 300 243 287 296 313 329 358 14 4 108
309 299 224 193 34 305 288 190 193 187 219 233 256 269 296 348 336 315 315 286 271 277 261 299 260 273 272 24 21 14 358 15 342 274 273 285 212 275 274 314 337 21 15 7
346 349 340 322 300 272 220 247 208 169 215 189 216 227 268 303 291 300 287 295 279 269 274 250 272 270 106 17 8 4 352 355 26 3 9 330 237 212 232 333 346 9 3 337
306 284 292 260 270 270 286 264 255 207 326 191 198 246 247 250 269 344 317 299 245 254 322 292 292 82 60 16 15 5 352 356 2 17 5 355 344 344 122 70 324 3 342 285
245 231 252 243 265 331 230 225 104 280 213 218 239 283 304 271 88 206 244 267 254 305 250 253 222 143 114 176 23 351 9 360 355 355 355 354 356 355 14 91 195 302 196 283
268 247 305 242 214 249 232 278 338 225 256 316 330 313 301 294 268 238 237 238 312 259 261 271 76 357 32 340 358 12 353 5 354 344 343 341 351 342 342 350 12 318 280 307
277 279 242 244 252 282 296 354 326 17 10 355 332 307 283 269 249 212 268 257 239 238 248 180 157 189 287 287 267 263 335 11 349 327 325 319 331 326 318 321 334 336 337 45
257 246 272 272 271 288 310 311 329 10 353 349 317 298 276 251 240 229 215 232 233 251 76 191 192 216 230 260 297 313 330 317 271 310 301 302 315 309 293 305 318 322 330 269
232 240 236 251 266 269 278 292 307 57 20 303 283 265 240 181 246 231 231 241 274 291 278 275 239 73 189 275 296 297 296 266 253 265 270 270 269 273 286 291 303 325 330 209